User: anonymous   Login
Location: Cussy
(47.0410°N, 4.6412°E)
Time: 06:06:54
(UTC+00:00)
Language:

Cosmos 2285 Rocket - Orbit

View from above orbital plane
View from above orbital plane
View from above satellite
View from above satellite

Ground track
Ground track

The orbit data is extracted from the following two-line orbital elements,

1 23190U 94045B   21055.66585966 -.00000065  00000-0 -44981-4 0  9994
2 23190  74.0287  27.9342 0018226  57.7001 302.5881 13.74097938332197
Epoch (UTC): 24 February 2021 15:58:50
Eccentricity: 0.0018226
inclination: 74.0287°
perigee height: 971 km
apogee height: 998 km
right ascension of ascending node: 27.9342°
argument of perigee: 57.7001°
revolutions per day: 13.74097938
mean anomaly at epoch: 302.5881°
orbit number at epoch: 33219

The dashed part of the orbit path shows where the satellite is in the earth's shadow,  

DLR